sat.trackr.live / text

‹ back to catalog

STARLINK-36595

NORAD 67639 · 2026-020Y

PAYLOAD ACTIVE UNKNOWN

§ Identity

Operator
Country
US
Launch date
2026-01-30
Launch site
AFETR
Launch vehicle
Mass (kg)
RCS (m²)

Purposes: comms

External: N2YO · Heavens-Above · Gunter

§ Orbital elements

Epoch: 2026-05-25T01:31:28.857216Z

Period
94.27 min
Inclination
43.0057°
Eccentricity
0.0002889
Mean motion
15.27594507 rev/d
Perigee alt
481.0 km
Apogee alt
485.0 km
Semi-major
6,861.1 km
B*
5.5012e-4
RAAN
68.4798°
Arg perigee
275.8918°
Mean anomaly
84.1604°
Rev number
1,779

§ Raw data

STARLINK-365951 67639U 26020Y   26145.06352844  .00014914  00000+0  55012-3 0  99952 67639  43.0057  68.4798 0002889 275.8918  84.1604 15.27594507 17793

JSON: /api/v1/satellites/67639 · /tle

For live sub-satellite position, see the globe view (requires WebGL).

§ Visibility from observer

Set your observer location to see the next 7 days of passes ≥ 10°. The values pass through the URL so the page stays shareable.

No JS? Fill the form by hand. The geolocation button needs JavaScript.